RH
59 69 71 71 77 85 77 72 70 69 71 69 71 68 62 62 67 78 91 67 70 56 50 57 56 51 50 58 55 57 86 94 79 69 62 40 43 37 32 33 33 28 29 30 34
61 66 69 68 70 75 87 76 72 69 69 70 72 66 60 65 81 85 66 58 52 55 55 58 62 57 68 68 63 67 89 76 59 58 59 52 52 46 40 42 40 38 32 32 34
63 61 62 68 67 72 76 89 72 69 72 72 69 63 64 70 84 75 52 57 45 54 53 53 64 60 72 71 73 70 81 62 55 52 52 56 53 43 44 44 42 41 37 33 36
69 66 63 64 71 72 75 81 74 77 70 73 68 65 66 75 62 69 52 48 48 62 68 69 67 68 70 74 61 80 62 59 58 55 57 57 50 50 43 42 35 36 35 35 32
68 70 67 64 70 73 76 80 84 74 70 74 68 68 74 88 77 57 55 58 59 64 72 73 71 72 77 66 56 64 54 47 45 48 48 44 50 50 45 39 36 35 33 35 33
67 68 75 66 72 73 83 81 84 77 73 73 68 70 75 88 54 52 48 44 43 42 51 50 53 55 57 56 60 55 56 53 49 50 48 47 46 46 42 35 32 32 35 36 36
67 68 76 67 72 78 80 82 78 75 75 72 69 61 76 69 52 49 39 41 39 41 48 49 51 55 61 64 59 57 67 61 51 50 54 48 53 49 39 36 35 32 30 30 31
66 67 72 70 69 77 90 91 82 71 76 73 68 77 84 52 50 44 40 45 39 39 45 47 50 58 62 63 66 72 78 84 51 51 48 57 66 45 38 37 37 34 34 31 29
67 68 70 76 69 75 82 87 79 82 83 73 80 83 89 42 48 41 40 45 45 46 49 34 55 64 67 87 91 83 98 88 68 49 51 55 65 47 42 42 39 34 38 36 33
69 69 72 80 72 73 88 80 81 84 74 60 54 79 68 60 44 42 42 44 51 55 60 61 69 80 88 95 95 89 96 83 80 58 56 63 62 50 45 43 39 33 31 31 32
70 72 75 76 78 71 89 96 92 96 82 80 74 66 56 49 42 48 42 46 50 56 83 76 89 97 84 81 77 81 87 90 69 56 64 64 58 46 41 44 42 37 34 32 35
72 74 79 77 84 78 90 87 79 73 94 74 70 60 50 47 54 49 43 59 65 83 73 84 93 71 70 72 78 85 92 87 64 46 53 54 57 48 47 49 50 50 46 40 35
71 81 82 84 83 87 84 88 87 63 84 81 68 59 54 50 58 60 49 56 67 80 83 89 66 60 69 80 87 84 89 82 70 56 65 72 81 74 60 58 52 51 47 46 41
70 85 90 81 86 85 93 83 91 71 95 88 77 64 55 60 65 45 48 55 63 74 74 82 65 67 75 83 77 92 63 67 72 96 98 74 93 66 59 79 68 70 64 57 52
70 82 79 83 95 92 90 88 89 75 97 82 67 54 59 67 61 60 50 58 72 73 66 77 73 71 77 74 70 83 74 84 83 98 98 90 98 83 88 88 84 81 80 75 55
72 72 81 90 88 88 91 88 76 95 97 98 76 79 72 66 63 63 64 61 63 63 64 78 62 68 73 64 64 70 84 90 95 98 99 85 93 88 92 96 93 88 74 77 79
82 80 86 87 94 80 72 74 96 98 82 88 85 66 67 82 72 74 78 90 87 89 92 80 85 76 76 91 84 96 99 98 94 99 93 94 98 88 95 95 94 94 81 79 90
90 84 90 87 74 66 75 93 93 74 85 61 64 65 86 71 75 64 76 91 76 76 100 98 87 84 85 96 99 100 100 98 100 98 94 96 95 92 90 91 89 84 80 81 94
81 95 97 94 83 75 81 96 90 81 62 67 68 90 68 77 78 78 83 82 68 76 98 97 92 67 80 79 94 96 100 94 99 96 98 95 85 84 74 88 91 94 87 90 88
97 91 97 92 94 79 90 81 73 66 70 68 82 78 94 88 87 87 94 59 63 63 70 93 97 72 80 78 86 98 90 97 99 98 96 91 97 98 97 98 94 94 95 87 86
96 96 92 89 88 86 97 78 68 57 62 70 76 87 81 84 85 96 85 72 56 72 72 90 98 81 83 95 100 98 99 97 98 98 98 96 97 100 100 100 99 95 94 90 92
97 99 88 94 91 97 94 67 62 59 63 62 67 66 75 74 84 96 86 79 57 72 89 87 93 99 96 75 70 87 97 87 98 93 95 98 98 92 96 97 100 96 93 91 95
97 98 86 94 96 96 69 60 64 65 64 65 69 63 61 68 89 84 96 65 63 71 82 80 94 96 78 71 74 92 85 73 77 86 94 98 96 85 94 95 96 98 93 92 93
96 97 94 96 97 95 75 67 69 60 61 60 66 65 65 66 74 86 89 68 65 67 66 75 93 98 98 98 89 90 87 79 88 97 95 98 97 95 95 96 96 96 94 90 94
95 96 89 94 90 87 74 65 68 64 62 60 71 75 83 80 76 85 83 73 65 61 69 74 96 91 98 81 84 88 89 81 91 93 96 94 94 98 96 97 96 96 94 90 93
93 96 95 94 91 79 66 61 65 68 67 68 76 73 75 83 81 83 80 86 85 69 75 73 77 80 82 81 81 92 86 74 75 76 81 79 91 78 78 82 89 94 92 92 94
89 84 77 84 81 78 76 61 67 64 64 71 72 78 82 78 73 76 74 72 78 82 82 82 82 87 84 71 67 84 94 84 80 76 79 92 84 81 88 88 90 93 92 95 94
Wind_Speed
14 16 14 16 15 16 15 12 11 9 7 6 5 6 3 1 3 1 4 8 6 11 2 3 1 2 3 2 2 3 2 4 4 4 4 6 7 2 5 3 5 3 5 3 9
15 16 15 15 15 15 12 14 12 10 8 6 7 6 3 2 1 6 9 9 9 13 3 1 1 2 2 1 0 4 4 7 5 2 3 7 6 9 4 6 7 4 9 4 6
12 13 16 17 17 17 14 15 12 8 7 7 7 4 1 2 3 5 5 13 6 7 3 4 3 2 3 2 2 3 5 4 5 6 7 7 11 5 5 10 5 11 9 19 6
16 13 13 15 15 19 17 13 13 10 10 10 9 4 3 1 4 2 9 8 8 6 1 3 3 3 3 3 3 2 3 4 4 6 7 11 8 12 9 8 8 10 8 12 14
16 16 13 15 16 17 21 11 14 13 9 12 11 8 3 1 6 4 7 8 4 4 3 2 4 3 3 2 4 3 3 5 6 7 6 9 11 10 14 9 9 11 14 14 19
16 17 14 12 16 19 21 13 14 12 10 13 11 9 4 3 2 6 7 5 2 3 3 3 2 3 2 1 1 3 5 6 4 8 7 11 14 6 3 9 14 14 16 15 19
15 16 14 11 13 18 5 15 13 11 10 13 11 3 3 6 2 5 6 4 2 3 2 3 2 3 2 4 2 5 6 7 7 6 5 9 20 16 10 10 17 17 17 19 21
13 14 12 11 11 10 1 4 8 7 13 13 10 2 3 3 1 6 3 1 2 4 4 4 5 4 3 1 6 4 2 3 4 2 6 6 26 14 15 15 18 17 16 17 20
13 13 13 10 8 10 6 11 10 10 9 8 5 1 2 2 3 4 4 3 3 2 1 2 4 3 2 4 5 3 3 4 7 6 6 8 15 5 6 8 14 14 14 15 18
13 13 12 10 5 4 13 11 9 11 6 4 4 2 2 4 3 4 2 4 4 5 1 2 4 2 3 4 5 5 3 5 7 3 4 16 27 26 19 17 20 21 20 18 19
13 12 12 7 12 10 9 8 5 5 1 3 2 2 3 2 4 4 6 4 2 4 4 2 2 7 10 9 7 4 6 12 17 13 13 21 25 27 21 19 21 22 21 19 19
12 10 10 15 22 19 8 6 4 4 6 6 2 3 4 1 3 3 4 3 3 5 3 4 8 11 9 8 8 8 11 19 16 12 6 15 30 24 25 23 22 23 23 23 21
9 7 13 21 15 18 8 7 2 3 6 2 1 2 2 2 4 8 7 3 4 3 5 5 6 2 5 7 8 11 9 16 16 17 10 13 17 9 7 10 15 21 24 21 20
6 13 8 9 6 9 5 4 4 2 4 4 4 3 2 1 2 5 4 5 3 7 4 6 7 8 9 9 8 9 11 17 10 6 4 5 12 8 7 8 4 9 10 15 17
3 6 6 11 6 3 7 4 7 5 3 7 7 1 3 2 9 1 0 3 3 3 2 6 4 3 4 6 6 11 5 9 13 12 12 4 6 10 6 8 17 20 14 11 14
5 5 9 4 4 6 9 7 2 3 4 4 4 5 5 1 2 3 1 2 2 3 4 9 3 4 7 5 10 8 10 11 10 4 3 5 6 8 7 18 24 18 14 13 12
13 11 7 3 2 5 6 3 4 3 1 5 4 6 5 4 3 3 3 1 1 4 4 6 3 3 3 6 1 1 3 4 6 5 6 2 4 8 10 18 20 20 16 12 10
22 18 12 7 5 3 3 4 7 2 2 5 6 8 4 4 1 5 2 2 4 3 3 1 7 4 5 5 3 3 3 4 4 2 4 3 8 5 9 17 19 22 14 10 7
13 4 4 7 7 3 5 5 2 2 4 8 6 5 5 1 4 3 1 3 4 4 2 2 5 1 5 5 2 1 3 2 4 4 2 3 7 3 14 21 21 21 21 10 6
4 4 4 9 6 4 4 5 4 4 5 4 4 3 4 2 3 2 4 2 1 2 5 1 4 5 4 2 7 5 4 1 2 5 4 5 5 9 23 23 20 22 21 17 11
4 4 4 9 3 4 4 4 4 4 4 0 3 4 3 5 3 1 3 3 3 2 4 3 2 5 2 2 4 2 2 2 2 1 2 3 3 8 17 18 18 20 20 17 12
3 5 4 5 5 1 3 3 0 4 3 3 2 4 5 5 3 2 2 1 3 2 3 4 1 3 4 4 3 2 4 4 2 6 2 3 3 14 17 18 14 17 22 18 9
4 2 4 4 4 3 2 4 3 5 4 4 4 4 2 3 4 2 3 5 5 2 2 1 3 4 7 5 6 6 6 1 3 1 10 3 5 14 17 18 20 19 20 16 18
4 3 3 4 1 2 2 3 2 3 3 3 3 4 2 4 5 3 2 4 5 2 3 1 4 3 4 4 2 7 13 11 2 3 3 7 8 14 19 20 22 25 24 22 20
3 2 4 1 3 3 1 2 2 2 3 4 4 4 3 3 3 2 1 5 4 5 2 2 2 3 3 4 8 7 6 8 8 4 4 7 9 12 16 18 20 19 22 26 24
4 5 3 2 2 3 5 3 2 2 4 3 6 4 6 5 2 3 2 0 2 7 5 4 1 3 5 3 11 8 9 9 7 6 3 6 4 9 11 13 18 20 20 20 21
2 2 5 3 2 3 2 1 1 3 3 5 2 4 5 1 2 2 3 1 2 2 3 3 2 3 3 3 1 5 7 6 3 6 4 6 3 7 13 16 16 16 18 20 21
Wind_Direction
319 329 322 327 338 246 223 214 214 223 229 244 237 203 230 316 337 172 231 222 186 233 165 325 21 54 77 75 107 108 112 208 217 186 256 353 350 8 328 287 323 291 293 62 11
326 329 333 317 318 328 261 212 205 211 213 229 208 203 226 18 244 228 229 238 238 179 126 69 319 134 58 82 161 133 166 205 209 250 278 304 297 303 335 330 290 284 305 331 18
317 322 323 328 316 324 320 236 200 195 190 185 183 194 134 103 285 255 218 218 187 153 155 145 268 88 103 54 235 181 200 216 260 278 281 277 292 264 274 284 233 291 299 304 0
323 312 321 322 322 316 319 287 186 172 190 168 161 165 139 240 222 262 134 161 168 140 94 164 187 109 134 196 235 253 260 247 263 269 280 280 281 275 245 251 256 270 272 287 300
326 320 320 321 317 314 310 266 190 169 187 171 159 144 136 264 251 200 134 136 111 141 211 167 145 140 175 207 341 224 275 309 303 291 277 276 266 263 273 283 263 278 287 285 289
327 324 315 320 321 323 303 187 179 168 166 168 155 132 112 254 239 133 128 117 168 158 158 121 140 166 124 132 184 325 319 293 293 279 261 266 271 252 236 292 285 277 275 279 281
318 321 320 316 329 342 155 149 161 171 171 167 148 157 120 223 186 151 152 159 209 181 122 60 121 95 86 332 24 302 303 306 259 252 263 293 275 258 277 264 265 259 256 259 262
307 317 325 308 328 343 190 129 147 163 165 157 147 88 220 291 170 152 134 98 125 94 100 109 70 100 125 306 352 331 340 291 281 235 247 154 271 271 260 258 262 262 259 260 262
309 311 313 297 319 329 189 123 112 113 117 120 76 131 295 329 192 149 136 196 182 125 94 77 95 136 87 81 360 344 246 252 296 228 237 201 279 254 252 256 268 265 257 255 257
302 309 317 294 293 14 114 116 129 97 106 100 87 68 296 220 147 146 186 251 212 147 93 78 58 88 42 91 224 228 251 237 250 281 302 281 272 273 267 255 257 260 253 248 252
308 311 305 281 278 239 158 124 106 100 177 167 197 243 112 145 142 165 187 151 86 159 173 178 129 223 221 210 223 229 247 266 273 277 276 266 268 272 269 254 252 248 248 247 240
313 323 308 293 274 212 156 156 162 154 143 213 350 277 296 154 113 179 127 143 159 207 122 21 247 234 223 218 226 244 269 272 277 273 243 275 275 270 268 258 250 249 247 241 243
327 39 338 313 130 138 146 102 73 25 82 70 355 231 255 103 172 182 137 161 190 213 196 183 243 1 210 252 249 249 248 270 268 305 270 275 276 259 249 239 248 249 246 244 239
338 82 345 54 60 122 83 114 81 269 94 124 208 224 142 163 45 111 150 174 231 215 222 235 255 242 264 255 222 269 235 249 268 297 268 61 294 278 300 318 345 333 292 248 239
338 95 74 41 114 111 132 100 35 55 96 183 132 148 139 113 136 256 1 68 232 263 82 259 293 295 271 245 168 238 223 236 276 262 293 265 244 277 355 339 328 314 306 294 235
59 166 113 21 46 102 147 133 111 102 117 155 117 147 135 207 185 150 209 58 298 305 255 240 226 270 229 254 232 266 291 279 267 264 261 227 176 287 342 326 319 310 295 290 284
73 80 88 22 65 122 136 134 75 39 219 123 156 161 131 190 185 173 174 191 119 354 330 327 234 262 217 279 314 181 280 329 356 8 237 224 215 260 332 323 309 294 293 288 289
80 74 73 46 19 96 61 54 61 87 97 140 122 109 139 177 342 213 182 295 226 170 114 10 333 196 158 228 270 270 207 164 255 309 277 3 328 291 325 314 322 326 265 271 294
94 46 38 355 351 47 71 55 118 165 158 133 92 71 147 186 133 103 180 248 224 155 192 281 284 331 221 223 213 255 230 214 265 226 270 290 286 289 328 336 342 344 341 330 302
81 78 25 329 334 59 80 106 77 36 96 116 125 171 156 203 82 40 198 284 272 140 145 223 290 227 270 223 205 234 326 309 236 335 334 292 310 322 332 332 334 335 326 314 289
54 74 311 338 16 48 90 81 73 24 61 99 63 128 137 164 132 196 238 304 313 137 162 185 199 287 271 358 316 325 315 258 264 319 313 309 333 332 323 322 322 322 319 319 296
55 67 293 347 48 7 49 28 34 12 5 56 96 94 152 175 123 164 202 313 281 181 251 186 202 300 264 270 255 180 2 335 32 355 317 302 338 341 327 325 327 332 330 333 354
74 65 327 41 77 356 6 54 65 29 18 36 52 27 39 127 98 170 245 275 291 249 296 316 346 349 343 356 27 36 12 7 306 63 11 350 325 330 331 342 349 349 354 7 23
109 93 342 37 37 60 69 55 82 18 55 44 65 65 58 48 45 133 316 285 311 263 203 227 36 35 97 61 341 52 28 27 49 51 338 15 318 340 345 349 356 355 3 25 30
64 158 186 58 358 355 83 78 76 43 12 32 48 73 146 89 61 73 255 309 315 311 122 104 86 48 90 99 68 68 43 30 55 17 60 342 0 349 351 351 0 3 4 18 27
120 128 29 135 306 35 2 5 101 69 27 4 106 56 86 101 170 165 159 30 288 321 19 1 112 100 179 126 84 59 11 34 28 11 47 339 23 2 358 3 1 10 6 23 32
318 46 100 332 37 75 277 31 65 122 52 54 149 97 71 106 282 283 283 198 295 321 325 26 58 56 277 299 18 37 348 20 49 18 338 10 347 340 23 17 6 2 16 17 23